Theta_e
306 306 306 306 305 305 304 304 303 303 302 303 302 302 303 303 302 295 291 293 290 285 286 290 291 286 286 284 281 285 286 287 286 281 281 282 281 282 281 283 281 280 277 277 278 275 276 293 291 284 286 289 292 292
306 306 306 305 305 304 304 303 303 302 303 302 302 302 303 302 302 298 288 293 295 289 287 291 293 294 292 291 285 285 284 284 286 283 284 282 280 280 280 277 285 278 281 277 279 279 286 291 291 293 292 291 292 292
305 305 305 305 304 303 303 303 303 302 302 301 302 303 302 302 303 301 295 292 290 285 286 284 286 291 293 293 294 283 284 287 288 289 285 281 279 281 277 278 281 283 285 280 281 283 287 291 292 293 294 293 294 294
304 305 304 304 303 303 303 303 302 302 301 301 301 301 302 303 302 302 293 290 289 289 284 283 292 291 295 292 292 293 289 289 288 287 282 280 278 283 279 280 279 282 283 281 281 286 289 291 293 293 294 295 294 296
303 304 304 304 303 303 302 303 302 302 302 301 301 302 301 301 301 297 291 291 292 291 285 286 290 291 290 290 291 292 289 287 285 283 282 280 281 281 280 280 278 284 282 282 281 288 288 289 293 294 293 294 295 293
303 303 304 304 303 302 302 302 301 301 302 302 302 301 301 301 300 290 285 298 299 297 288 283 285 287 290 290 290 290 290 287 286 285 282 282 286 282 275 276 283 286 288 290 288 290 291 292 294 295 294 294 293 294
303 303 304 303 302 302 302 302 302 302 302 301 301 300 300 300 292 286 284 294 298 292 285 281 280 286 291 291 290 290 290 288 290 285 282 282 283 284 279 277 285 287 289 291 293 291 291 293 292 295 293 294 295 294
303 303 304 302 302 302 302 302 301 301 302 300 300 300 301 301 296 288 291 298 297 288 284 280 279 283 293 289 287 290 288 288 286 287 284 283 285 283 280 284 287 289 291 292 294 294 293 294 293 293 294 293 292 291
302 303 302 302 302 302 302 301 301 301 300 300 300 301 296 293 288 289 301 299 294 288 282 282 277 277 291 289 289 289 289 286 289 286 287 286 279 282 284 285 287 289 291 292 294 293 292 291 292 293 292 291 290 290
302 303 302 302 302 302 301 301 301 300 299 300 296 291 288 291 300 298 290 290 289 289 288 282 283 278 283 284 284 288 287 288 285 287 289 280 281 287 288 289 290 291 292 293 288 289 290 291 292 291 291 292 291 291
303 302 302 302 302 301 300 300 300 299 299 293 291 288 294 298 290 287 286 283 285 282 285 284 281 279 284 279 280 287 286 286 282 285 285 284 280 286 292 293 293 294 294 293 292 292 291 292 292 292 292 292 291 291
302 302 302 301 301 300 300 300 300 295 293 294 292 293 290 286 284 283 282 283 282 280 285 282 285 283 282 285 284 286 284 286 281 290 286 282 285 290 293 292 292 292 292 292 293 293 293 294 294 293 293 292 291 290
301 300 300 299 299 300 300 299 299 299 297 291 289 287 284 283 277 279 277 281 282 286 288 287 287 289 285 287 284 284 277 279 291 285 281 286 288 292 294 293 292 293 293 293 293 293 294 295 295 294 293 293 293 290
299 299 299 299 299 300 299 298 298 298 291 285 282 276 280 279 280 281 281 280 285 287 288 289 289 289 289 284 285 283 285 287 281 276 282 285 289 293 294 294 293 292 293 293 293 293 293 293 293 295 294 294 293 291
298 299 299 298 299 299 299 299 299 295 289 284 283 275 281 284 287 287 289 287 289 292 291 288 286 288 287 286 288 285 285 281 284 283 284 288 291 293 294 294 293 293 293 293 293 293 292 293 293 292 292 292 293 292
298 297 294 297 297 297 298 297 294 291 288 284 282 280 283 284 283 285 286 287 292 289 292 290 287 286 286 287 284 283 283 282 283 286 288 291 292 295 295 297 295 295 293 293 293 293 292 293 293 292 291 291 291 293
296 293 298 297 297 298 298 292 289 287 285 284 280 282 282 283 282 284 286 288 288 286 284 286 283 283 288 285 285 286 285 285 286 288 290 291 292 293 293 297 298 296 296 294 294 293 293 293 292 292 290 290 290 290
292 294 299 299 296 294 290 289 287 285 281 282 279 281 282 283 284 284 287 287 285 284 286 286 289 284 283 279 277 285 289 289 289 290 292 292 294 292 293 293 296 297 295 295 294 294 293 291 290 289 290 290 290 289
293 295 298 297 294 292 288 287 285 280 281 281 281 281 283 284 285 286 287 287 287 288 286 286 286 283 285 287 286 288 288 287 287 290 293 292 291 292 293 296 298 296 295 292 293 293 293 292 290 290 289 288 288 288
297 297 297 297 294 285 284 284 288 282 280 281 282 282 282 284 285 285 285 286 285 285 283 282 282 287 288 290 291 288 288 288 289 288 288 291 292 294 293 294 294 295 293 292 291 291 291 292 291 290 290 289 288 288
292 292 296 291 287 285 279 280 281 282 284 282 285 283 282 284 283 282 283 285 283 282 282 284 286 290 294 294 293 290 288 290 288 289 289 289 292 293 293 292 294 293 291 291 290 291 291 291 292 291 290 290 289 289
291 296 290 290 286 287 283 285 283 284 282 283 282 282 280 280 280 282 284 282 282 284 284 285 287 291 292 292 291 290 290 290 290 290 291 291 290 290 291 291 291 292 291 292 291 291 291 291 291 292 291 291 291 290
294 292 288 289 283 279 280 286 282 282 280 282 284 282 282 282 283 286 282 283 286 290 289 287 289 289 292 294 294 293 293 292 292 291 290 291 291 291 291 292 293 293 292 293 292 292 292 290 291 293 292 292 291 290
295 286 283 281 283 280 286 284 285 284 284 282 282 282 283 284 289 285 283 286 291 293 291 290 292 290 288 288 287 288 288 290 290 290 291 290 290 291 292 292 296 297 295 294 294 294 293 294 293 295 293 293 292 290
284 277 278 272 282 282 282 283 285 284 282 283 282 282 286 288 283 283 284 288 290 290 289 290 290 290 289 290 291 293 292 290 290 290 291 291 290 291 292 293 296 298 300 297 296 295 295 295 294 295 296 294 292 291
278 280 276 281 283 283 282 280 281 280 282 281 281 282 282 279 282 284 286 288 287 286 289 288 289 290 289 290 291 293 294 295 290 289 291 291 291 290 292 293 295 298 301 300 298 298 297 296 296 296 296 293 289 292
273 280 283 288 287 285 280 282 283 280 283 283 285 285 282 276 279 284 286 291 289 291 292 292 292 292 290 292 294 297 297 293 291 291 291 292 293 294 294 297 299 301 301 301 299 299 298 297 296 296 295 294 294 293
282 283 277 283 284 285 282 279 281 282 284 286 284 281 280 280 279 287 289 292 292 293 293 294 294 294 294 293 294 295 295 297 292 292 292 296 300 303 303 305 306 290 296 298 299 299 299 300 299 298 296 295 294 296
283 285 285 282 285 284 282 281 281 287 289 284 284 283 283 287 290 290 291 292 293 293 293 292 294 296 297 297 296 296 296 296 296 294 293 292 294 296 300 302 305 306 305 304 290 296 298 297 300 299 297 296 296 296
285 288 286 284 281 276 284 289 288 290 290 289 289 288 286 289 291 293 292 292 290 291 292 293 291 294 295 293 293 295 295 294 294 292 290 291 292 296 297 299 300 303 304 304 306 306 293 297 296 299 298 298 298 297
289 288 285 285 283 288 289 290 290 290 289 287 289 286 286 288 290 292 292 292 292 292 291 291 291 294 292 291 291 291 292 294 293 293 291 291 292 292 294 296 298 301 304 304 303 304 302 302 300 298 298 299 298 295
286 285 285 284 285 289 291 288 287 287 287 287 286 288 288 287 284 289 293 293 291 290 290 292 293 292 295 296 296 295 290 295 295 291 290 290 290 291 293 295 300 305 303 302 301 301 301 300 300 301 300 299 298 295
286 287 287 286 286 286 289 288 287 286 287 286 287 288 287 283 279 288 294 295 293 292 291 292 294 294 293 293 293 294 293 297 294 286 286 284 283 285 289 292 298 298 296 294 293 293 293 295 296 297 298 297 297 295
Wind_Speed
11 11 11 10 10 9 9 9 9 9 10 9 10 10 9 9 10 3 4 2 2 3 6 5 4 2 3 1 1 5 5 3 3 2 3 3 3 2 1 1 2 3 3 3 2 2 5 2 2 4 6 3 5 6
12 11 10 10 10 9 10 10 9 9 8 9 10 10 9 9 8 3 2 2 1 3 7 3 10 14 12 17 4 4 3 2 4 3 0 1 1 2 1 2 4 1 5 4 7 7 5 3 5 7 4 6 8 6
14 13 11 10 9 10 10 10 9 9 8 9 10 8 9 10 9 4 2 1 2 2 5 3 4 3 3 8 11 5 3 4 1 3 3 2 1 3 2 4 2 3 0 1 4 4 4 7 5 5 6 9 10 10
15 14 12 11 10 10 10 10 9 8 8 8 9 9 9 10 8 6 2 2 1 3 4 7 3 8 5 6 8 13 3 4 4 3 3 2 2 3 3 3 4 6 0 3 4 7 7 4 5 7 9 10 10 10
14 15 12 11 10 10 11 10 9 9 8 8 9 11 6 8 9 4 3 4 4 2 3 7 12 6 5 6 9 9 5 3 2 2 2 3 1 2 1 2 4 5 6 4 5 7 5 9 8 8 7 8 8 7
14 14 13 11 10 10 7 6 9 10 10 9 9 7 7 8 7 3 3 2 2 1 2 5 5 7 7 4 8 8 7 4 3 3 3 2 2 4 2 3 6 4 3 5 5 3 6 11 10 6 5 7 7 7
14 14 12 11 10 9 10 12 11 11 9 7 7 8 7 7 2 2 4 2 1 3 1 5 6 5 5 1 3 3 2 2 3 2 1 2 2 4 2 4 7 5 5 7 6 4 6 3 6 8 5 5 7 6
14 14 10 8 10 10 12 9 9 10 9 5 7 9 9 11 5 3 5 13 3 2 2 3 5 5 5 4 2 2 3 2 1 2 1 2 2 2 4 9 7 8 8 9 7 4 7 7 5 4 5 5 7 7
15 10 8 10 10 11 9 8 9 7 3 5 8 13 4 2 2 4 4 7 2 4 2 2 2 4 4 1 1 3 2 2 0 2 2 4 2 6 8 7 7 7 5 7 9 6 6 5 2 4 5 7 6 8
14 9 10 10 11 9 9 9 8 3 3 7 2 1 1 3 7 1 4 2 2 1 1 3 1 4 2 1 2 2 2 3 3 4 3 2 5 8 9 9 9 11 7 6 2 5 5 5 2 3 4 5 5 7
15 10 11 11 9 7 4 5 4 1 3 1 2 1 3 7 2 1 2 2 2 3 3 4 4 3 2 2 3 3 2 1 2 3 3 2 4 5 4 6 6 7 7 6 5 3 3 5 3 3 5 5 5 7
8 8 8 4 4 4 6 2 3 3 1 3 2 3 2 2 1 2 2 1 3 3 3 3 3 5 4 3 1 1 2 1 2 3 2 2 5 5 5 3 3 2 4 2 3 4 3 5 5 4 5 5 4 5
7 5 2 1 1 3 6 3 0 3 3 2 1 2 2 1 1 3 3 2 2 3 3 3 2 3 1 1 1 2 3 4 2 2 3 4 4 3 1 3 2 2 2 3 4 2 4 5 5 4 6 5 5 5
5 5 3 2 3 2 5 1 3 0 2 0 1 4 3 3 3 0 2 4 6 3 1 2 1 2 1 1 2 2 3 1 1 2 3 3 3 3 1 1 2 1 3 4 4 4 3 4 3 5 6 6 4 5
2 5 6 6 7 0 5 3 5 2 1 1 1 2 2 3 4 5 6 3 3 2 4 2 1 1 1 1 1 2 3 3 2 1 2 3 3 3 1 0 3 2 2 3 2 3 4 4 2 4 7 6 4 4
4 2 1 4 7 5 3 4 2 1 1 1 2 2 3 3 3 4 2 3 4 1 2 2 0 1 2 1 2 3 1 1 1 1 2 0 2 3 3 3 5 4 2 3 2 2 3 3 2 2 6 6 7 2
5 1 2 9 6 4 4 2 2 0 2 3 4 3 3 4 5 3 2 5 2 3 2 2 3 3 3 2 1 2 2 2 3 4 3 3 2 4 5 5 5 5 4 2 2 1 1 1 2 1 4 7 6 6
0 5 6 6 4 3 2 2 1 1 3 4 2 4 3 3 3 4 4 2 3 3 3 3 3 2 4 2 4 2 2 3 4 3 3 3 4 5 4 4 3 4 3 2 2 1 0 1 3 2 2 5 6 6
1 2 7 6 2 2 0 1 1 2 5 3 4 3 3 4 4 4 4 3 3 3 0 1 2 1 1 3 3 3 4 3 3 4 3 5 5 6 6 5 3 1 2 1 2 2 2 4 2 1 1 2 3 4
4 3 1 5 4 2 2 2 2 1 3 4 3 3 3 4 3 2 3 3 2 2 3 3 2 1 3 3 4 4 3 3 1 2 3 4 4 6 4 4 2 2 2 2 2 0 0 1 1 1 2 1 2 4
5 3 1 3 2 2 2 1 2 4 3 3 3 2 4 2 2 2 3 1 3 1 1 1 2 3 8 4 2 2 2 3 3 2 2 3 4 4 6 5 5 2 2 1 0 3 1 2 3 4 2 2 1 1
2 1 1 0 1 2 2 3 3 3 2 3 3 1 2 2 2 3 2 3 2 3 3 3 3 4 7 5 3 1 3 2 3 4 2 2 4 5 6 5 4 1 2 4 3 3 2 3 3 4 4 3 3 3
2 1 1 1 2 2 6 1 2 2 2 3 3 2 2 2 3 1 2 2 2 2 4 3 3 5 6 6 5 5 3 4 4 4 4 3 3 3 4 3 2 2 2 3 3 3 4 2 4 4 4 4 3 3
2 0 1 2 3 4 2 2 2 3 3 2 2 3 1 2 1 2 3 2 3 5 6 9 7 4 2 4 4 4 4 2 3 4 2 2 4 5 4 4 3 3 3 3 2 3 4 3 2 3 5 4 5 5
2 5 4 5 3 3 3 2 1 1 2 2 3 2 1 3 2 3 2 3 4 6 6 8 5 5 3 4 4 5 3 2 3 3 3 1 3 4 4 3 3 5 2 2 2 3 4 3 3 4 4 5 7 6
2 3 4 3 1 2 2 3 2 2 2 2 2 3 3 2 2 4 2 3 4 3 7 7 7 7 5 2 4 7 7 5 3 2 4 3 1 1 2 3 4 5 1 2 2 4 6 5 6 3 5 7 9 9
2 3 2 1 1 2 4 3 3 0 3 2 2 1 2 4 3 2 2 1 3 4 5 5 5 5 7 7 7 7 7 3 3 2 0 3 2 1 1 2 4 5 6 6 4 5 5 5 3 2 7 7 7 8
4 2 2 2 1 1 2 2 2 3 3 3 1 4 2 1 1 2 2 3 6 7 7 6 6 6 5 5 6 7 5 5 3 3 3 1 3 4 6 4 4 8 2 1 3 4 5 4 5 8 10 9 6 5
3 2 2 3 2 1 2 3 1 1 2 2 3 1 1 0 1 1 2 4 6 5 4 4 6 5 4 4 5 5 6 6 6 6 5 4 5 4 6 6 6 6 4 4 4 5 4 2 4 8 12 8 6 7
3 3 2 1 1 2 1 2 1 1 1 1 1 1 1 1 2 3 3 3 3 4 4 3 3 4 5 4 4 6 6 5 5 4 2 3 4 7 7 6 6 5 5 5 3 5 5 6 5 7 8 6 5 6
1 2 2 1 1 1 1 2 2 1 1 1 2 2 0 2 3 3 3 2 3 3 3 4 4 4 3 3 3 4 4 4 5 5 3 3 4 5 6 6 6 5 4 5 4 2 4 6 6 7 9 9 7 7
2 2 2 1 2 0 1 0 0 1 1 1 1 1 1 1 2 3 2 0 3 3 3 2 3 4 5 3 2 1 3 4 2 3 6 5 6 6 6 5 6 5 5 6 6 6 6 6 5 5 5 9 9 8
2 1 2 2 1 1 1 1 1 1 2 1 1 1 1 1 2 3 2 2 3 3 3 3 3 3 5 5 5 4 5 4 2 5 5 7 7 7 5 6 6 7 8 7 8 8 9 9 8 7 7 6 7 9
Wind_Direction
295 294 293 288 285 286 291 290 293 298 301 304 316 316 322 335 339 36 273 284 72 259 274 236 262 162 10 43 173 294 356 336 15 101 139 214 186 241 336 274 195 177 161 213 121 149 275 163 81 178 219 265 250 248
293 291 284 286 288 284 281 281 283 292 299 306 308 305 311 329 321 71 311 304 339 212 248 273 254 256 228 234 178 236 209 231 210 91 123 82 42 28 105 278 347 286 178 196 169 220 219 206 207 253 223 238 259 250
288 286 282 281 282 285 284 280 274 285 294 302 308 319 319 311 316 335 236 279 2 291 293 341 249 313 186 204 205 166 273 221 267 160 154 158 131 118 190 243 289 313 212 210 25 288 235 260 276 234 256 258 263 261
285 279 269 272 274 276 281 287 274 273 278 289 303 304 301 306 319 347 270 204 145 274 291 284 306 285 249 237 193 203 148 47 99 79 105 130 139 157 217 234 202 201 81 216 257 289 298 275 239 268 282 289 274 271
288 284 264 264 271 275 275 278 276 268 270 281 292 295 319 336 330 318 223 220 193 219 293 289 314 268 282 205 190 187 176 102 54 25 91 212 189 104 328 10 257 189 196 165 227 236 207 270 274 286 284 282 276 289
287 283 265 249 258 273 270 276 272 273 265 266 291 322 322 324 2 11 347 102 61 233 286 294 287 290 310 257 176 169 162 124 130 150 213 252 249 107 109 246 258 239 231 180 250 266 225 255 272 262 280 307 324 327
292 281 259 237 249 253 262 274 265 267 260 259 286 293 300 309 92 174 206 266 251 47 18 302 309 282 304 21 74 92 95 138 123 159 197 180 281 117 142 233 257 255 277 289 258 272 296 284 278 325 333 331 331 326
300 284 243 226 248 254 266 273 277 284 272 261 289 293 292 293 335 295 259 253 201 92 75 275 275 332 10 354 66 355 91 49 352 162 81 178 17 91 256 243 274 275 289 286 290 245 236 265 327 17 350 344 335 322
302 284 197 235 244 259 250 257 269 276 268 297 297 298 322 182 232 244 359 87 102 131 254 237 255 275 336 11 15 32 22 104 43 189 222 106 250 228 229 243 254 257 238 283 301 295 321 337 0 6 343 330 326 320
289 251 227 232 244 243 243 256 264 256 284 299 332 272 271 221 249 325 8 66 59 328 262 246 247 267 30 4 333 109 311 199 200 220 121 151 254 255 254 240 246 266 267 278 281 331 333 338 291 316 315 317 314 312
286 219 232 238 245 238 254 266 291 210 22 66 257 215 285 327 57 72 196 197 164 235 212 241 206 238 286 154 231 213 184 190 231 191 173 215 272 248 273 253 234 234 234 244 236 271 269 234 281 290 305 323 328 329
252 250 244 241 215 242 268 231 217 106 142 201 270 297 323 36 65 244 220 176 213 248 194 219 221 208 264 176 156 222 167 166 265 121 212 236 257 263 294 127 123 163 221 304 6 319 257 233 272 273 278 282 296 313
79 63 101 187 250 249 169 155 286 219 352 10 187 246 77 271 10 247 229 208 235 211 214 222 226 243 291 212 206 99 76 225 154 229 204 237 275 282 285 146 170 236 348 333 345 309 244 275 284 282 290 277 269 301
87 84 79 75 76 102 147 147 323 139 82 44 279 291 195 224 252 263 270 227 248 225 247 285 257 215 234 136 165 188 226 172 186 202 231 253 249 283 211 181 135 340 345 315 326 326 276 294 280 311 325 305 265 282
60 89 94 72 52 183 202 253 136 58 122 266 130 258 229 285 209 230 238 298 280 230 247 206 197 278 272 204 212 236 215 227 258 164 236 240 287 296 292 178 199 249 299 315 309 321 3 3 79 339 329 326 293 265
74 31 10 110 95 75 45 88 63 69 298 250 242 285 262 268 294 329 346 337 277 284 259 228 97 187 206 206 181 244 258 99 238 235 246 283 270 292 280 262 233 237 233 279 264 279 10 12 130 246 335 351 343 284
46 278 257 184 203 253 125 80 44 324 283 264 259 244 250 256 247 253 249 257 287 315 314 63 25 353 291 246 83 29 10 339 321 315 302 226 247 279 280 256 241 235 229 260 265 244 234 318 55 178 357 336 356 2
243 307 21 114 131 69 17 57 105 275 262 263 263 269 240 241 267 288 264 295 350 328 335 96 192 325 29 357 312 302 291 296 268 262 273 289 309 316 310 302 255 202 230 216 268 129 202 92 40 1 302 333 3 5
349 37 57 55 84 105 329 298 125 261 246 244 259 259 237 259 253 250 264 287 225 242 169 131 107 78 336 249 243 231 248 255 308 310 307 300 320 349 346 357 107 154 174 166 145 196 219 188 165 151 162 3 20 352
7 334 36 29 34 52 334 270 139 254 272 253 265 273 224 235 271 265 287 318 12 21 10 17 62 189 254 243 193 223 226 229 253 337 320 350 348 356 11 331 292 251 139 99 85 99 154 119 262 174 186 172 46 2
2 285 321 65 14 111 161 252 270 218 266 263 269 284 272 312 310 327 306 49 62 150 275 181 182 204 248 268 224 212 275 186 210 193 230 325 334 328 347 0 25 87 117 134 279 285 215 224 221 205 159 146 196 7
312 91 18 314 315 262 256 224 215 262 270 257 305 239 284 297 277 246 176 74 213 245 205 187 188 227 263 286 294 223 226 270 280 285 294 296 359 350 348 328 348 304 230 237 221 243 250 249 220 190 142 135 90 58
315 13 296 259 8 3 261 128 245 243 240 262 330 317 299 270 241 342 78 106 47 351 321 307 309 236 241 272 305 297 289 260 262 280 313 330 316 309 310 308 266 171 223 270 231 264 267 270 210 172 148 138 117 83
278 294 245 218 227 267 273 272 257 285 289 282 231 244 304 294 305 56 80 42 351 352 347 345 355 347 2 325 321 315 292 260 277 300 283 358 339 314 319 313 329 326 244 234 257 279 292 222 189 171 174 148 129 108
324 290 105 293 228 261 272 280 217 239 249 307 318 355 290 326 357 71 61 356 336 0 351 347 347 357 359 322 326 326 315 246 238 252 304 116 286 314 327 318 291 244 218 86 260 251 267 267 205 198 173 147 135 114
268 252 157 254 248 252 283 296 299 288 289 274 273 294 12 46 41 78 59 360 324 326 343 346 340 333 328 260 314 318 314 329 188 180 286 247 228 218 349 2 335 313 248 256 279 265 250 240 249 171 182 139 120 125
288 271 239 310 79 324 314 296 274 182 270 294 325 332 44 44 43 10 337 20 299 312 310 288 279 279 269 297 306 299 290 253 216 202 72 36 24 349 20 344 324 280 310 321 343 313 275 256 227 125 118 113 138 149
244 276 218 241 261 233 258 291 295 341 1 344 0 44 45 28 305 325 297 305 302 302 295 283 270 265 279 289 295 316 332 352 359 45 61 290 59 42 3 328 312 324 315 22 30 2 17 17 102 123 137 138 151 146
247 246 50 275 229 247 240 230 258 52 360 323 1 60 99 238 291 269 278 302 308 302 334 356 5 3 25 350 342 10 26 22 53 52 29 358 346 321 347 332 337 333 347 15 54 55 9 357 154 142 151 150 128 121
248 189 228 264 197 248 259 7 14 136 65 46 22 69 37 292 267 272 290 316 335 334 326 346 9 15 29 338 319 28 26 28 50 70 4 329 293 303 313 316 316 317 316 325 349 38 45 95 72 91 108 102 116 131
230 162 171 215 274 298 307 57 33 69 77 65 23 85 99 300 291 262 266 284 315 334 12 16 0 1 352 337 3 21 0 350 21 29 10 300 296 302 306 308 306 300 326 324 342 5 130 126 126 134 135 138 149 136
154 168 174 206 86 161 174 218 335 42 57 106 31 50 326 332 328 294 249 227 351 359 355 335 343 330 323 319 343 349 247 290 7 36 10 346 335 330 319 326 332 21 35 34 28 37 59 71 81 96 132 136 137 134
92 85 60 75 61 11 292 129 28 53 13 70 109 154 200 181 214 273 308 217 237 267 287 284 288 306 324 345 348 333 335 334 62 120 58 14 355 356 355 357 18 32 43 46 42 40 43 57 61 64 78 98 116 125